Showing default

OPS 8480 (TRANSIT 5B-6), 1420

Orbit data source: Space-Track

OPS 8480 (TRANSIT 5B-6), 1420 is a payload satellite owned by USN BuWeps (US) in LEO that was launched on Thu, 24 Jun 1965 UTC via a THOR ABLESTAR launch vehicle from the Air Force Western Test Range (AFWTR). Payloads include a variety of satellites, spacecraft, and rockets equipped with specific instruments for various scientific and technological missions. These include communications satellites like Starlink; space stations such as the ISS; scientific satellites like the Hubble; Earth observation satellites from companies like Planet Labs, Umbra, and HawkEye 360; GPS; miniature CubeSats for education and research; and military/defense satellites.

Loading next visibility...
OPS 8480 (TRANSIT 5B-6) details
Identifier
1420, 1965-048A
Orbit
LEO
Last TLE update16 hours ago
Origin
Flag of USUSN BuWeps (US)
ManufacturerAPL
MissionDefense Navigation
Bus & MotorTRANSIT 5, Unknown motor
Mass~54 kg wet, ~54 kg dry
Launch date (UTC)
1965-06-24 (59 years ago)
Launch vehicle
THOR ABLESTAR
Launch site
Air Force Western Test Range (AFWTR)
Object type
Payload
Rocket body
Debris
Shape & HBROct Cyl + 4 Pan + 1 Rod, Unknown HBR
Radar Cross Section7.565 m², Large (>1 m²)

Expand to show TLE details & history

TLE from 16 hours ago
0 OPS 8480 (TRANSIT 5B-6)
1  1420U 65048A   24355.99830424  .00000186  00000-0  26503-3 0  9992
2  1420  89.8905 292.7156 0072258 204.2872 210.4888 13.51753069930495
Epoch: 2024-12-20T23:57Z
Definitive object data (Epoch: 2024-12-20T23:57:33.486Z)
Latitude54.45235°
Longitude-156.57724°
Altitude1,121.33 km
Speed7.274 km/s
True Right ascension19h 31m 28s
True Declination54° 17' 51"
Sunlit
Object was in daylight at TLE epoch
Visualization TLE readout
Latitude19.45448°
Longitude-156.69852°
Altitude1,122.053 km
Speed7.267 km/s
Apparent Right ascension22h 12m 15s
Apparent Declination-12° 31' 37"
Sunlit
Object is in daylight
Visualization observer readout
Local Sidereal Time14:48:45
Azimuth86.435° E
Elevation-23.951°
Doppler factor1
Orbital elements
Apogee altitude1,116.63 km
Perigee altitude1,009.095 km
Semi-major axis7,441 km
Eccentricity0.0072258
Inclination89.8905°
RAAN292.7156°
Arg. of periapsis204.2872°
True anomaly210.07194°
Mean anomaly210.4888°
Eccentric anomaly210.28005°
Mean motion3.3814 °/min
BSTAR0.00026503
Orbital period106.46 mins
Loading maneuver chart data...

OPS 8480 (TRANSIT 5B-6) Visibility forecast

Observer location: undefined°, undefined

Span
Click to sort rows by Start time (UTC) header in descending order
Start Az.
Max El. time (UTC)
Max El. Az.
Max El.
End time (UTC)
End Az.
11 mins2024-12-21 19:20:24.865Z136.02° SSE2024-12-21 19:26:24.865Z74.147° E27.821°2024-12-21 19:31:24.865Z20.921° NNE
11 mins2024-12-21 21:07:24.865Z209.975° SW2024-12-21 21:12:24.865Z275.295° WNW34.305°2024-12-21 21:18:24.865Z343.063° N
11 mins2024-12-22 08:16:24.865Z3.737° NNE2024-12-22 08:21:24.865Z39.221° NE44.694°2024-12-22 08:27:24.865Z181.305° SSW
4 mins2024-12-22 10:05:24.865Z307.113° NW2024-12-22 10:07:24.865Z287.043° WNW13.793°2024-12-22 10:09:24.865Z267.592° W
|